Haines, AK

3:32 PM AKDT on July 25, 2017 (GMT -0800)
Haines

Weather History for PAHN - January, 2014

Change the Weather History Date:

Friday, January 3, 2014

  Actual Average Record
Temperature  
Mean Temperature 24 °F -  
Max Temperature 28 °F 26 °F 44 °F (1984)
Min Temperature 21 °F 19 °F 0 °F (1982)
Degree Days  
Heating Degree Days 40    
Moisture  
Dew Point 21 °F    
Average Humidity 85    
Maximum Humidity 92    
Minimum Humidity 72    
Precipitation  
Precipitation 0.00 in - - ()
Sea Level Pressure  
Sea Level Pressure 30.34 in    
Wind  
Wind Speed 13 mph (WNW)    
Max Wind Speed 18 mph    
Max Gust Speed -    
Visibility 9 miles    
Events Snow    
Averages and records for this station are not official NWS values.
T = Trace of Precipitation, MM = Missing Value Source: NWS Daily Summary

Daily Weather History Graph

Daily Weather History Graph

Search for Another Location

Airport or City:

Trip Planner

Search our weather history database for the weather conditions in past years. The results will help you decide how hot, cold, wet, or windy it might be!

Date:

Astronomy

Jan. 03, 2014 Rise Set
Actual Time 8:56 AM AKST 3:17 PM AKST
Civil Twilight 8:02 AM AKST 4:11 PM AKST
Nautical Twilight 7:08 AM AKST 5:05 PM AKST
Astronomical Twilight 6:18 AM AKST 5:55 PM AKST
Moon 9:37 AM AKST (1/3) 7:32 PM AKST (1/3)
Length of Visible Light 8h 08m
Length of Day
6h 21m
Waxing Crescent, 9% of the Moon is Illuminated
Jan 3
Waxing Crescent
Jan 7
First Quarter
Jan 15
Full
Jan 23
Last Quarter
Jan 30
New

Hourly Weather History & Observations

Time (AKST) Temp. Windchill Dew Point Humidity Pressure Visibility Wind Dir Wind Speed Gust Speed Precip Events Conditions
12:54 AM 27.0 °F 16.7 °F 24.1 °F 89% 30.09 in 10.0 mi WNW 11.5 mph - N/A   Clear
1:54 AM 24.1 °F 14.4 °F 21.9 °F 91% 30.13 in 10.0 mi WNW 9.2 mph - N/A   Clear
2:54 AM 26.1 °F 16.8 °F 24.1 °F 92% 30.17 in 10.0 mi WNW 9.2 mph - N/A   Overcast
3:54 AM 25.0 °F 15.5 °F 23.0 °F 92% 30.19 in 10.0 mi WNW 9.2 mph - N/A   Overcast
4:04 AM 25.0 °F 13.1 °F 23.0 °F 92% 30.19 in 10.0 mi WNW 13.8 mph - N/A   Overcast
4:14 AM 24.1 °F 12.5 °F 21.9 °F 91% 30.19 in 7.0 mi WNW 12.7 mph - 0.00 in Snow Light Snow
4:54 AM 23.0 °F 11.7 °F 21.0 °F 92% 30.21 in 10.0 mi WNW 11.5 mph - 0.00 in   Overcast
5:47 AM 21.9 °F 8.2 °F 19.0 °F 89% 30.23 in 6.0 mi WNW 16.1 mph - 0.00 in Snow Light Snow
5:54 AM 21.9 °F 8.7 °F 19.0 °F 89% 30.24 in 8.0 mi WNW 15.0 mph - 0.00 in Snow Light Snow
6:54 AM 25.0 °F 12.6 °F 21.0 °F 85% 30.26 in 10.0 mi WNW 15.0 mph - 0.00 in   Overcast
7:52 AM 23.0 °F 10.6 °F 19.4 °F 86% 30.27 in 7.0 mi WNW 13.8 mph - 0.00 in Snow Light Snow
7:54 AM 23.0 °F 10.6 °F 19.9 °F 88% 30.27 in 7.0 mi WNW 13.8 mph - 0.00 in Snow Light Snow
8:54 AM 23.0 °F 9.6 °F 19.0 °F 85% 30.31 in 8.0 mi WNW 16.1 mph - 0.00 in Snow Light Snow
9:21 AM 25.0 °F 12.6 °F 21.0 °F 85% 30.31 in 2.5 mi WNW 15.0 mph - 0.00 in Snow Light Snow
9:35 AM 23.0 °F 10.6 °F 19.9 °F 88% 30.31 in 5.0 mi WNW 13.8 mph - 0.00 in Snow Light Snow
9:54 AM 21.9 °F 8.7 °F 18.0 °F 85% 30.33 in 5.0 mi WNW 15.0 mph - 0.00 in Snow Light Snow
10:08 AM 23.0 °F 9.2 °F 19.9 °F 88% 30.32 in 1.8 mi WNW 17.3 mph - 0.00 in Snow Light Snow
10:21 AM 25.0 °F 12.6 °F 21.0 °F 85% 30.33 in 2.5 mi WNW 15.0 mph - 0.00 in Snow Light Snow
10:30 AM 26.1 °F 14.0 °F 21.0 °F 81% 30.33 in 5.0 mi WNW 15.0 mph - 0.00 in Snow Light Snow
10:54 AM 25.0 °F 13.1 °F 21.0 °F 85% 30.35 in 9.0 mi WNW 13.8 mph - 0.00 in   Overcast
11:54 AM 23.0 °F 9.6 °F 19.9 °F 88% 30.36 in 10.0 mi WNW 16.1 mph - 0.00 in   Overcast
12:50 PM 26.6 °F 14.3 °F 21.2 °F 80% 30.37 in 10.0 mi NW 16.1 mph - N/A   Overcast
12:54 PM 28.0 °F 16.1 °F 19.9 °F 72% 30.38 in 10.0 mi NW 16.1 mph - N/A   Overcast
1:38 PM 25.0 °F 13.1 °F 21.0 °F 85% 30.38 in 10.0 mi WNW 13.8 mph - N/A   Overcast
1:54 PM 25.0 °F 12.6 °F 21.0 °F 85% 30.38 in 10.0 mi WNW 15.0 mph - N/A   Overcast
2:41 PM 25.0 °F 12.2 °F 21.0 °F 85% 30.39 in 10.0 mi WNW 16.1 mph - N/A   Overcast
2:54 PM 26.1 °F 14.5 °F 21.0 °F 81% 30.40 in 10.0 mi WNW 13.8 mph - N/A   Overcast
3:54 PM 24.1 °F 11.0 °F 21.0 °F 88% 30.40 in 10.0 mi WNW 16.1 mph - N/A   Overcast
4:44 PM 24.1 °F 12.0 °F 19.9 °F 84% 30.40 in 10.0 mi WNW 13.8 mph - N/A   Overcast
4:54 PM 24.1 °F 11.5 °F 21.0 °F 88% 30.41 in 10.0 mi WNW 15.0 mph - N/A   Overcast
5:54 PM 24.1 °F 12.0 °F 21.0 °F 88% 30.40 in 10.0 mi WNW 13.8 mph - N/A   Overcast
6:27 PM 24.1 °F 12.0 °F 21.0 °F 88% 30.41 in 10.0 mi WNW 13.8 mph - N/A   Overcast
6:54 PM 24.1 °F 12.5 °F 21.0 °F 88% 30.41 in 10.0 mi WNW 12.7 mph - N/A   Overcast
7:38 PM 24.1 °F 11.5 °F 21.0 °F 88% 30.41 in 10.0 mi WNW 15.0 mph - N/A   Overcast
7:54 PM 26.1 °F 14.0 °F 21.0 °F 81% 30.42 in 10.0 mi WNW 15.0 mph - N/A   Overcast
8:22 PM 27.0 °F 17.3 °F 21.9 °F 81% 30.42 in 10.0 mi NW 10.4 mph - N/A   Overcast
8:54 PM 24.1 °F 11.0 °F 19.9 °F 84% 30.43 in 10.0 mi WNW 16.1 mph - N/A   Overcast
9:34 PM 27.0 °F 16.7 °F 21.0 °F 78% 30.44 in 10.0 mi WNW 11.5 mph - N/A   Overcast
9:54 PM 28.0 °F 17.0 °F 21.0 °F 75% 30.45 in 10.0 mi WNW 13.8 mph - N/A   Overcast
10:52 PM 26.6 °F 13.4 °F 21.2 °F 80% 30.44 in 10.0 mi NW 18.4 mph - N/A   Overcast
10:54 PM 26.1 °F 12.7 °F 21.0 °F 81% 30.45 in 10.0 mi NW 18.4 mph - N/A   Overcast
11:17 PM 27.0 °F 14.7 °F 21.0 °F 78% 30.45 in 10.0 mi NW 16.1 mph - N/A   Overcast
11:47 PM 28.0 °F 17.5 °F 21.0 °F 75% 30.44 in 10.0 mi NW 12.7 mph - N/A   Overcast
11:54 PM 26.1 °F 14.0 °F 21.0 °F 81% 30.45 in 10.0 mi WNW 15.0 mph - N/A   Overcast